User: anonymous   Login
Location: Chandrammap?lem
(16.9200°N, 81.0051°E)
Time: 21:31:10
(UTC+00:00)
Language:

USA 229 - Orbit

View from above orbital plane
View from above orbital plane
View from above satellite
View from above satellite

Ground track
Ground track

The orbit data is extracted from the following two-line orbital elements,

1 37386U 11014A   24203.04357524 0.00000000  00000-0  00000-0 0    08
2 37386  63.4278 258.1693 0293472 357.3709   2.6291 13.40917356    03
Epoch (UTC): 21 July 2024 01:02:44
Eccentricity: 0.0293472
inclination: 63.4278°
perigee height: 886 km
apogee height: 1325 km
right ascension of ascending node: 258.1693°
argument of perigee: 357.3709°
revolutions per day: 13.40917356
mean anomaly at epoch: 2.6291°
orbit number at epoch: 0

The dashed part of the orbit path shows where the satellite is in the earth's shadow,  

DLR